Location: Fort Collins
(40.5850°N, 105.0840°W)
Time: 15:21:26
(UTC-06:00)

Cosmos 2297 Rocket - Visible Passes

Search period start: 17 August 2017 00:00
Search period end: 27 August 2017 00:00
Orbit: 838 x 845 km, 71.0° (Epoch: 16 August)

Date Brightness Start Highest point End Pass type
(mag) Time Alt. Az. Time Alt. Az. Time Alt. Az.
20 Aug 5.3 20:53:09 10° W 20:54:24 11° W 20:55:39 10° WSW visible
21 Aug 5.2 20:37:32 10° WNW 20:39:20 12° W 20:41:08 10° WSW visible
22 Aug 5.2 20:22:04 10° WNW 20:24:17 12° W 20:26:29 10° WSW visible
23 Aug 5.2 20:06:40 10° WNW 20:09:13 13° W 20:11:45 10° SW visible
